When you browse on this site, cookies collect data to enhance your experience and personalize the content and advertising you see.
Visit our Privacy Policy to learn more. By continuing to use the site, you agree to this use of cookies and data.
  • en Belgique
  • Liste des pays
  • À 7 jours
  • Température de l'eau
  • Carte satellitaire
  • Carte météo
  • Widgets météo
  • user-avatar
    Se connecter

    Météo par heure à Ghanzi

    Ce jour, 21 Juillet, Dimanche

    Heure Température Précipitation Vent Pression Humidité
    00:00 +36°C° 0 mm 7 m/s 713 mmHg 20%
    01:00 +35°C° 0 mm 6 m/s 713 mmHg 23%
    02:00 +34°C° 0 mm 6 m/s 713 mmHg 24%
    03:00 +33°C° 0 mm 6 m/s 713 mmHg 25%
    04:00 +33°C° 0 mm 5 m/s 712 mmHg 26%
    05:00 +34°C° 0 mm 6 m/s 713 mmHg 25%
    06:00 +34°C° 0 mm 6 m/s 713 mmHg 25%
    07:00 +35°C° 0 mm 7 m/s 714 mmHg 24%
    08:00 +38°C° 0 mm 7 m/s 714 mmHg 20%
    09:00 +41°C° 0 mm 7 m/s 714 mmHg 17%
    10:00 +44°C° 0 mm 7 m/s 714 mmHg 13%
    11:00 +45°C° 0 mm 6 m/s 714 mmHg 12%
    12:00 +46°C° 0 mm 5 m/s 714 mmHg 11%
    13:00 +47°C° 0 mm 5 m/s 713 mmHg 10%
    14:00 +47°C° 0 mm 4 m/s 713 mmHg 10%
    15:00 +47°C° 0 mm 4 m/s 712 mmHg 9%
    16:00 +46°C° 0 mm 3 m/s 711 mmHg 9%
    17:00 +44°C° 0 mm 3 m/s 712 mmHg 10%
    18:00 +43°C° 0 mm 4 m/s 712 mmHg 11%
    19:00 +41°C° 0 mm 4 m/s 712 mmHg 13%
    20:00 +40°C° 0 mm 4 m/s 712 mmHg 14%
    21:00 +38°C° 0 mm 4 m/s 713 mmHg 16%
    22:00 +37°C° 0 mm 4 m/s 713 mmHg 18%
    23:00 +38°C° 0 mm 6 m/s 713 mmHg 19%

    Demain, 22 Juillet, Lundi

    Heure Température Précipitation Vent Pression Humidité
    00:00 +36°C° 0 mm 7 m/s 713 mmHg 19%
    01:00 +37°C° 0 mm 9 m/s 713 mmHg 20%
    02:00 +35°C° 0 mm 8 m/s 713 mmHg 22%
    03:00 +34°C° 0 mm 7 m/s 712 mmHg 23%
    04:00 +33°C° 0 mm 6 m/s 712 mmHg 24%
    05:00 +33°C° 0 mm 6 m/s 713 mmHg 23%
    06:00 +34°C° 0 mm 6 m/s 714 mmHg 23%
    07:00 +34°C° 0 mm 6 m/s 714 mmHg 22%
    08:00 +36°C° 0 mm 6 m/s 715 mmHg 20%
    09:00 +39°C° 0 mm 5 m/s 715 mmHg 18%
    10:00 +41°C° 0 mm 4 m/s 715 mmHg 16%
    11:00 +42°C° 0 mm 4 m/s 715 mmHg 15%
    12:00 +43°C° 0 mm 3 m/s 714 mmHg 14%
    13:00 +44°C° 0 mm 3 m/s 714 mmHg 13%
    14:00 +44°C° 0 mm 4 m/s 713 mmHg 13%
    15:00 +44°C° 0 mm 4 m/s 712 mmHg 12%
    16:00 +44°C° 0 mm 4 m/s 712 mmHg 12%
    17:00 +43°C° 0 mm 4 m/s 712 mmHg 13%
    18:00 +41°C° 0 mm 4 m/s 712 mmHg 14%
    19:00 +40°C° 0 mm 4 m/s 712 mmHg 16%
    20:00 +39°C° 0 mm 5 m/s 712 mmHg 16%
    21:00 +38°C° 0 mm 7 m/s 713 mmHg 17%
    22:00 +37°C° 0 mm 8 m/s 713 mmHg 18%
    23:00 +35°C° 0 mm 7 m/s 713 mmHg 18%

    Après-demain, 23 Juillet, Mardi

    Heure Température Précipitation Vent Pression Humidité
    00:00 +34°C° 0 mm 6 m/s 713 mmHg 18%
    01:00 +33°C° 0 mm 5 m/s 713 mmHg 18%
    02:00 +32°C° 0 mm 4 m/s 713 mmHg 19%
    03:00 +31°C° 0 mm 3 m/s 713 mmHg 19%
    04:00 +30°C° 0 mm 2 m/s 713 mmHg 19%
    05:00 +31°C° 0 mm 3 m/s 713 mmHg 18%
    06:00 +32°C° 0 mm 4 m/s 714 mmHg 17%
    07:00 +33°C° 0 mm 5 m/s 714 mmHg 16%
    08:00 +35°C° 0 mm 5 m/s 715 mmHg 14%
    09:00 +37°C° 0 mm 5 m/s 715 mmHg 13%
    10:00 +39°C° 0 mm 5 m/s 715 mmHg 12%
    11:00 +40°C° 0 mm 5 m/s 714 mmHg 12%
    12:00 +41°C° 0 mm 5 m/s 714 mmHg 12%
    13:00 +42°C° 0 mm 4 m/s 713 mmHg 12%
    14:00 +43°C° 0 mm 5 m/s 713 mmHg 12%
    15:00 +43°C° 0 mm 5 m/s 712 mmHg 12%
    16:00 +43°C° 0 mm 5 m/s 712 mmHg 11%
    17:00 +41°C° 0 mm 5 m/s 712 mmHg 12%
    18:00 +40°C° 0 mm 5 m/s 712 mmHg 13%
    19:00 +38°C° 0 mm 6 m/s 712 mmHg 14%
    20:00 +36°C° 0 mm 6 m/s 712 mmHg 14%
    21:00 +35°C° 0 mm 6 m/s 713 mmHg 15%
    22:00 +34°C° 0 mm 6 m/s 713 mmHg 16%
    23:00 +33°C° 0 mm 6 m/s 713 mmHg 17%

    24 Juillet, Mercredi

    Heure Température Précipitation Vent Pression Humidité
    00:00 +32°C° 0 mm 5 m/s 713 mmHg 17%
    01:00 +30°C° 0 mm 4 m/s 712 mmHg 17%
    02:00 +29°C° 0 mm 4 m/s 712 mmHg 18%
    03:00 +29°C° 0 mm 4 m/s 713 mmHg 19%
    04:00 +28°C° 0 mm 4 m/s 713 mmHg 20%
    05:00 +29°C° 0 mm 4 m/s 713 mmHg 19%
    06:00 +30°C° 0 mm 4 m/s 713 mmHg 18%
    07:00 +32°C° 0 mm 5 m/s 714 mmHg 17%
    08:00 +34°C° 0 mm 4 m/s 714 mmHg 16%
    09:00 +36°C° 0 mm 4 m/s 714 mmHg 14%
    10:00 +38°C° 0 mm 3 m/s 714 mmHg 12%
    11:00 +39°C° 0 mm 3 m/s 714 mmHg 12%
    12:00 +40°C° 0 mm 3 m/s 713 mmHg 11%
    13:00 +42°C° 0 mm 3 m/s 712 mmHg 10%
    14:00 +42°C° 0 mm 4 m/s 712 mmHg 10%
    15:00 +43°C° 0 mm 5 m/s 712 mmHg 10%
    16:00 +44°C° 0 mm 7 m/s 711 mmHg 9%
    17:00 +41°C° 0 mm 7 m/s 711 mmHg 10%
    18:00 +39°C° 0 mm 7 m/s 711 mmHg 11%
    19:00 +36°C° 0 mm 7 m/s 712 mmHg 12%
    20:00 +35°C° 0 mm 7 m/s 712 mmHg 13%
    21:00 +34°C° 0 mm 6 m/s 712 mmHg 14%
    22:00 +33°C° 0 mm 6 m/s 713 mmHg 15%
    23:00 +32°C° 0 mm 6 m/s 712 mmHg 16%

    25 Juillet, Jeudi

    Heure Température Précipitation Vent Pression Humidité
    00:00 +30°C° 0 mm 5 m/s 712 mmHg 18%
    01:00 +29°C° 0 mm 5 m/s 712 mmHg 19%
    02:00 +29°C° 0 mm 5 m/s 712 mmHg 20%
    03:00 +28°C° 0 mm 4 m/s 712 mmHg 21%
    04:00 +27°C° 0 mm 3 m/s 712 mmHg 22%
    05:00 +29°C° 0 mm 3 m/s 713 mmHg 21%
    06:00 +30°C° 0 mm 4 m/s 713 mmHg 20%
    07:00 +32°C° 0 mm 4 m/s 714 mmHg 19%
    08:00 +34°C° 0 mm 3 m/s 714 mmHg 17%
    09:00 +36°C° 0 mm 3 m/s 714 mmHg 15%
    10:00 +37°C° 0 mm 3 m/s 714 mmHg 13%
    11:00 +39°C° 0 mm 2 m/s 713 mmHg 12%
    12:00 +40°C° 0 mm 2 m/s 713 mmHg 11%
    13:00 +41°C° 0 mm 2 m/s 712 mmHg 11%
    14:00 +41°C° 0 mm 2 m/s 712 mmHg 10%
    15:00 +41°C° 0 mm 2 m/s 712 mmHg 10%
    16:00 +43°C° 0 mm 3 m/s 711 mmHg 10%
    17:00 +40°C° 0 mm 3 m/s 712 mmHg 11%
    18:00 +38°C° 0 mm 4 m/s 712 mmHg 12%
    19:00 +36°C° 0 mm 4 m/s 712 mmHg 13%
    20:00 +35°C° 0 mm 5 m/s 712 mmHg 13%
    21:00 +34°C° 0 mm 5 m/s 712 mmHg 13%
    22:00 +33°C° 0 mm 6 m/s 712 mmHg 14%
    23:00 +33°C° 0 mm 5 m/s 712 mmHg 15%

    26 Juillet, Vendredi

    Heure Température Précipitation Vent Pression Humidité
    00:00 +32°C° 0 mm 5 m/s 712 mmHg 16%
    01:00 +30°C° 0 mm 5 m/s 712 mmHg 16%
    02:00 +30°C° 0 mm 5 m/s 712 mmHg 18%
    03:00 +29°C° 0 mm 4 m/s 712 mmHg 19%
    04:00 +28°C° 0 mm 4 m/s 712 mmHg 20%
    05:00 +29°C° 0 mm 5 m/s 713 mmHg 19%
    06:00 +30°C° 0 mm 5 m/s 713 mmHg 18%
    07:00 +32°C° 0 mm 6 m/s 713 mmHg 17%
    08:00 +35°C° 0 mm 6 m/s 713 mmHg 15%
    09:00 +38°C° 0 mm 6 m/s 714 mmHg 12%
    10:00 +41°C° 0 mm 6 m/s 714 mmHg 10%
    11:00 +42°C° 0 mm 4 m/s 714 mmHg 9%
    12:00 +42°C° 0 mm 3 m/s 713 mmHg 9%
    13:00 +42°C° 0 mm 2 m/s 713 mmHg 8%
    14:00 +43°C° 0 mm 2 m/s 712 mmHg 8%
    15:00 +43°C° 0 mm 2 m/s 712 mmHg 8%
    16:00 +44°C° 0 mm 3 m/s 711 mmHg 8%
    17:00 +42°C° 0 mm 3 m/s 711 mmHg 9%
    18:00 +39°C° 0 mm 3 m/s 711 mmHg 10%
    19:00 +37°C° 0 mm 3 m/s 711 mmHg 11%
    20:00 +36°C° 0 mm 4 m/s 711 mmHg 12%
    21:00 +35°C° 0 mm 6 m/s 712 mmHg 13%
    22:00 +35°C° 0 mm 7 m/s 712 mmHg 14%
    23:00 +34°C° 0 mm 6 m/s 712 mmHg 15%
    Voir plus